This is the latest recevied weather packets stored in our database for station/object SP8NFE-1. If no packets are shown the sender has not sent any weather packets the latest 10 day(s).
| Time | Temp. | Humidity | Pressure | Rain* | Wind** | Luminosity | Snow |
|---|---|---|---|---|---|---|---|
| 1777961412 | 16.67° C | 54% | 0 hPa | 0 mm | - | - | - |
| 1777961112 | 15.56° C | 63% | 0 hPa | 0 mm | - | - | - |
| 1777960812 | 15° C | 67% | 0 hPa | 0 mm | - | - | - |
| 1777960512 | 15° C | 67% | 0 hPa | 0 mm | - | - | - |
| 1777960212 | 14.44° C | 80% | 0 hPa | 0 mm | - | - | - |
| 1777959911 | 13.89° C | 86% | 0 hPa | 0 mm | - | - | - |
| 1777959612 | 13.33° C | 89% | 0 hPa | 0 mm | - | - | - |
| 1777959312 | 12.78° C | 94% | 0 hPa | 0 mm | - | - | - |
| 1777959012 | 12.22° C | 95% | 0 hPa | 0 mm | - | - | - |
| 1777958712 | 11.67° C | 97% | 0 hPa | 0 mm | - | - | - |
| 1777958412 | 10.56° C | 98% | 0 hPa | 0 mm | - | - | - |
| 1777958112 | 10° C | 99% | 0 hPa | 0 mm | - | - | - |
| 1777957812 | 9.44° C | 100% | 0 hPa | 0 mm | - | - | - |
| 1777957512 | 8.33° C | 100% | 0 hPa | 0 mm | - | - | - |
| 1777957212 | 7.78° C | 100% | 0 hPa | 0 mm | - | - | - |
| 1777956912 | 7.22° C | 100% | 0 hPa | 0 mm | - | - | - |
| 1777956612 | 6.67° C | 100% | 0 hPa | 0 mm | - | - | - |
| 1777956312 | 6.11° C | 100% | 0 hPa | 0 mm | - | - | - |
| 1777956012 | 5.56° C | 100% | 0 hPa | 0 mm | - | - | - |
| 1777955712 | 5.56° C | 100% | 0 hPa | 0 mm | - | - | - |
| 1777955412 | 5.56° C | 100% | 0 hPa | 0 mm | - | - | - |
| 1777955112 | 5° C | 100% | 0 hPa | 0 mm | - | - | - |
| 1777954812 | 5° C | 100% | 0 hPa | 0 mm | - | - | - |
| 1777954512 | 5° C | 100% | 0 hPa | 0 mm | - | - | - |
| 1777954212 | 4.44° C | 100% | 0 hPa | 0 mm | - | - | - |
* Rain latest hour (hover to see other rain measurements)
** Current wind speed in m/s (hover to see current wind gust speed)